Location: Crescent
(42.8242°N, 73.7329°W)
Time: 20:27:33
(UTC+00:00)

SR - Pass Details

Date: 22 February 2026
Orbit: 573 x 848 km, 66.7° (Epoch: 6 March)

Event Time Altitude Azimuth Distance (km) Brightness Sun altitude
Rises 17:47:26 0° 322° (NW) 3,125 ? 36.4°
Reaches altitude 10° 17:49:50 10° 315° (NW) 2,245 ? 36.3°
Maximum altitude 17:54:37 40° 246° (WSW) 1,129 ? 36.1°
Drops below altitude 10° 17:59:43 10° 179° (S) 2,385 ? 35.9°
Sets 18:02:20 0° 172° (S) 3,343 ? 35.8°
